Weather History for Valley City, ND

Change the Weather History Date:

Sunday, September 29, 2013

  Actual Average (KJMS) Record (KJMS)
Temperature  
Mean Temperature 57 °F 52 °F  
Max Temperature 75 °F 64 °F 94 °F (1905)
Min Temperature 39 °F 39 °F 17 °F (1930)
Degree Days  
Heating Degree Days 8 14  
Month to date heating degree days 240  
Since 1 July heating degree days 306  
Cooling Degree Days 0 0  
Month to date cooling degree days 28  
Year to date cooling degree days 443  
Growing Degree Days 7 (Base 50)    
Moisture  
Dew Point 44 °F    
Average Humidity 68    
Maximum Humidity 100    
Minimum Humidity 31    
Precipitation  
Precipitation 0.00 in 0.06 in 0.94 in (1965)
Month to date precipitation 1.95  
Year to date precipitation 16.14  
Sea Level Pressure  
Sea Level Pressure 29.70 in    
Wind  
Wind Speed 10 mph (SSW)    
Max Wind Speed 20 mph    
Max Gust Speed 28 mph    
Visibility 10 miles    
Events      
T = Trace of Precipitation, MM = Missing Value Source: NWS Daily Summary

Daily Weather History Graph

Daily Weather History Graph

Search for Another Location

Airport:

Trip Planner

Search our weather history database for the weather conditions in past years. The results will help you decide how hot, cold, wet, or windy it might be!

Date:

Astronomy

Sep. 29, 2013 Rise Set
Actual Time 7:28 AM CDT 7:15 PM CDT
Civil Twilight 6:58 AM CDT 7:45 PM CDT
Nautical Twilight 6:22 AM CDT 8:20 PM CDT
Astronomical Twilight 5:46 AM CDT 8:56 PM CDT
Moon 1:53 AM CDT (9/29) 4:27 PM CDT (9/29)
Length of Visible Light 12h 47m
Length of Day
11h 46m
Waning Crescent, 27% of the Moon is Illuminated
Sep 29
Waning Crescent
Oct 4
New
Oct 11
First Quarter
Oct 18
Full
Oct 26
Last Quarter

Hourly Weather History & Observations

Time (CDT) Temp. Windchill Dew Point Humidity Pressure Visibility Wind Dir Wind Speed Gust Speed Precip Events Conditions
12:15 AM 50.0 °F - 42.8 °F 76% 29.81 in 10.0 mi SW 11.5 mph - N/A   Clear
12:35 AM 50.0 °F - 42.8 °F 76% 29.81 in 10.0 mi SW 10.4 mph - N/A   Clear
12:55 AM 50.0 °F - 41.0 °F 71% 29.81 in 10.0 mi SW 10.4 mph - N/A   Clear
1:15 AM 48.2 °F - 41.0 °F 76% 29.81 in 10.0 mi SW 10.4 mph - N/A   Clear
1:35 AM 48.2 °F - 42.8 °F 82% 29.81 in 10.0 mi SW 9.2 mph - N/A   Clear
1:55 AM 46.4 °F 41.5 °F 44.6 °F 93% 29.81 in 10.0 mi SW 10.4 mph - N/A   Clear
2:15 AM 46.4 °F 41.5 °F 44.6 °F 93% 29.81 in 10.0 mi SW 10.4 mph - N/A   Clear
2:35 AM 44.6 °F 39.7 °F 42.8 °F 93% 29.81 in 10.0 mi SSW 9.2 mph - N/A   Clear
2:55 AM 44.6 °F 39.2 °F 44.6 °F 100% 29.81 in 10.0 mi SW 10.4 mph - N/A   Clear
3:15 AM 44.6 °F 40.2 °F 42.8 °F 93% 29.81 in 10.0 mi SW 8.1 mph - N/A   Clear
3:35 AM 46.4 °F 41.5 °F 42.8 °F 87% 29.81 in 10.0 mi WSW 10.4 mph - N/A   Clear
3:55 AM 46.4 °F 41.9 °F 42.8 °F 87% 29.81 in 10.0 mi SW 9.2 mph - N/A   Clear
4:15 AM 42.8 °F 37.5 °F 42.8 °F 100% 29.81 in 10.0 mi SSW 9.2 mph - N/A   Clear
4:35 AM 42.8 °F 38.6 °F 42.8 °F 100% 29.81 in 10.0 mi SSW 6.9 mph - N/A   Clear
4:55 AM 42.8 °F 39.3 °F 42.8 °F 100% 29.81 in 10.0 mi SSW 5.8 mph - N/A   Clear
5:15 AM 41.0 °F 39.0 °F 41.0 °F 100% 29.81 in 10.0 mi SSW 3.5 mph - N/A   Clear
5:35 AM 41.0 °F 37.1 °F 41.0 °F 100% 29.81 in 10.0 mi South 5.8 mph - N/A   Clear
5:55 AM 39.2 °F 33.0 °F 39.2 °F 100% 29.80 in 10.0 mi South 9.2 mph - N/A   Clear
6:15 AM 39.2 °F 33.6 °F 39.2 °F 100% 29.80 in 10.0 mi SSW 8.1 mph - N/A   Clear
6:35 AM 39.2 °F 33.6 °F 39.2 °F 100% 29.80 in 10.0 mi South 8.1 mph - N/A   Clear
6:55 AM 39.2 °F 34.2 °F 39.2 °F 100% 29.80 in 10.0 mi South 6.9 mph - N/A   Clear
7:15 AM 39.2 °F 33.6 °F 39.2 °F 100% 29.80 in 10.0 mi South 8.1 mph - N/A   Clear
7:35 AM 39.2 °F 33.0 °F 39.2 °F 100% 29.79 in 10.0 mi South 9.2 mph - N/A   Clear
7:55 AM 39.2 °F 32.5 °F 39.2 °F 100% 29.78 in 10.0 mi South 10.4 mph - N/A   Clear
8:15 AM 41.0 °F 35.8 °F 41.0 °F 100% 29.78 in 10.0 mi SSW 8.1 mph - N/A   Clear
8:35 AM 46.4 °F 41.5 °F 44.6 °F 93% 29.78 in 10.0 mi SSW 10.4 mph - N/A   Clear
8:55 AM 50.0 °F - 44.6 °F 82% 29.77 in 10.0 mi South 9.2 mph - N/A   Clear
9:15 AM 51.8 °F - 44.6 °F 76% 29.77 in 10.0 mi South 10.4 mph - N/A   Clear
9:35 AM 55.4 °F - 44.6 °F 67% 29.76 in 10.0 mi SSW 11.5 mph - N/A   Clear
9:55 AM 57.2 °F - 42.8 °F 59% 29.76 in 10.0 mi SSW 11.5 mph - N/A   Clear
10:15 AM 59.0 °F - 44.6 °F 59% 29.75 in 10.0 mi South 11.5 mph - N/A   Clear
10:35 AM 60.8 °F - 44.6 °F 55% 29.75 in 10.0 mi South 11.5 mph - N/A   Clear
10:55 AM 62.6 °F - 44.6 °F 52% 29.74 in 10.0 mi South 11.5 mph - N/A   Clear
11:15 AM 64.4 °F - 44.6 °F 49% 29.74 in 10.0 mi SSW 15.0 mph 18.4 mph N/A   Clear
11:35 AM 66.2 °F - 44.6 °F 46% 29.74 in 10.0 mi South 17.3 mph - N/A   Clear
11:55 AM 66.2 °F - 44.6 °F 46% 29.73 in 10.0 mi SSW 15.0 mph 19.6 mph N/A   Clear
12:15 PM 68.0 °F - 44.6 °F 43% 29.72 in 10.0 mi South 11.5 mph 16.1 mph N/A   Clear
12:35 PM 71.6 °F - 44.6 °F 38% 29.71 in 10.0 mi South 18.4 mph 21.9 mph N/A   Clear
12:55 PM 68.0 °F - 44.6 °F 43% 29.71 in 10.0 mi South 17.3 mph 24.2 mph N/A   Clear
1:15 PM 68.0 °F - 44.6 °F 43% 29.70 in 10.0 mi SSW 16.1 mph 21.9 mph N/A   Clear
1:35 PM 68.0 °F - 44.6 °F 43% 29.69 in 10.0 mi South 13.8 mph 24.2 mph N/A   Clear
1:55 PM 69.8 °F - 44.6 °F 40% 29.68 in 10.0 mi South 16.1 mph 23.0 mph N/A   Clear
2:15 PM 71.6 °F - 46.4 °F 41% 29.68 in 10.0 mi South 13.8 mph 17.3 mph N/A   Clear
2:35 PM 73.4 °F - 46.4 °F 38% 29.66 in 10.0 mi South 16.1 mph 20.7 mph N/A   Clear
2:55 PM 73.4 °F - 42.8 °F 33% 29.66 in 10.0 mi South 17.3 mph 23.0 mph N/A   Clear
3:15 PM 73.4 °F - 44.6 °F 36% 29.64 in 10.0 mi South 17.3 mph 23.0 mph N/A   Clear
3:35 PM 73.4 °F - 44.6 °F 36% 29.63 in 10.0 mi South 15.0 mph 26.5 mph N/A   Clear
3:55 PM 73.4 °F - 42.8 °F 33% 29.62 in 10.0 mi South 18.4 mph 26.5 mph N/A   Clear
4:15 PM 73.4 °F - 42.8 °F 33% 29.61 in 10.0 mi South 19.6 mph 25.3 mph N/A   Clear
4:35 PM 75.2 °F - 42.8 °F 31% 29.61 in 10.0 mi South 16.1 mph 26.5 mph N/A   Clear
4:55 PM 73.4 °F - 42.8 °F 33% 29.61 in 10.0 mi SSW 15.0 mph 27.6 mph N/A   Clear
5:15 PM 73.4 °F - 44.6 °F 36% 29.62 in 10.0 mi South 15.0 mph 19.6 mph N/A   Clear
5:35 PM 71.6 °F - 44.6 °F 38% 29.61 in 10.0 mi South 13.8 mph - N/A   Clear
5:55 PM 71.6 °F - 46.4 °F 41% 29.60 in 10.0 mi South 11.5 mph - N/A   Clear
6:15 PM 68.0 °F - 48.2 °F 49% 29.60 in 10.0 mi South 6.9 mph - N/A   Clear
6:35 PM 68.0 °F - 46.4 °F 46% 29.60 in 10.0 mi SSE 4.6 mph - N/A   Clear
6:55 PM 66.2 °F - 48.2 °F 52% 29.60 in 10.0 mi Calm Calm - N/A   Clear
7:15 PM 68.0 °F - 46.4 °F 46% 29.60 in 10.0 mi East 4.6 mph - N/A   Clear
7:35 PM 64.4 °F - 48.2 °F 56% 29.60 in 10.0 mi SSE 4.6 mph - N/A   Clear
7:55 PM 64.4 °F - 48.2 °F 56% 29.60 in 10.0 mi SSE 6.9 mph - N/A   Clear
8:15 PM 59.0 °F - 48.2 °F 67% 29.59 in 10.0 mi South 6.9 mph - N/A   Clear
8:35 PM 60.8 °F - 48.2 °F 63% 29.59 in 10.0 mi SSE 5.8 mph - N/A   Clear
8:55 PM 57.2 °F - 48.2 °F 72% 29.59 in 10.0 mi South 4.6 mph - N/A   Clear
9:15 PM 57.2 °F - 48.2 °F 72% 29.59 in 10.0 mi South 5.8 mph - N/A   Clear
9:35 PM 57.2 °F - 48.2 °F 72% 29.57 in 10.0 mi South 4.6 mph - N/A   Clear
9:55 PM 57.2 °F - 48.2 °F 72% 29.57 in 10.0 mi SW 4.6 mph - N/A   Clear
10:15 PM 57.2 °F - 48.2 °F 72% 29.57 in 10.0 mi SSW 4.6 mph - N/A   Clear
10:35 PM 55.4 °F - 48.2 °F 77% 29.55 in 10.0 mi South 4.6 mph - N/A   Clear
10:55 PM 53.6 °F - 48.2 °F 82% 29.55 in 10.0 mi South 3.5 mph - N/A   Clear
11:15 PM 55.4 °F - 48.2 °F 77% 29.54 in 10.0 mi SSW 5.8 mph - N/A   Clear
11:35 PM 53.6 °F - 50.0 °F 88% 29.53 in 10.0 mi SW 4.6 mph - N/A   Clear
11:55 PM 55.4 °F - 50.0 °F 82% 29.53 in 10.0 mi SW 3.5 mph - N/A   Clear